Weather History for Cut Bank, MT

Change the Weather History Date:

Monday, November 5, 2012

  Actual Average Record
Temperature  
Mean Temperature 52 °F 35 °F  
Max Temperature 63 °F 46 °F 75 °F (2010)
Min Temperature 40 °F 24 °F -17 °F (2003)
Degree Days  
Heating Degree Days 13 30  
Month to date heating degree days 98 147  
Since 1 July heating degree days 1269 1371  
Cooling Degree Days 0 0  
Month to date cooling degree days 0 0  
Year to date cooling degree days 210 162  
Growing Degree Days 2 (Base 50)    
Moisture  
Dew Point 34 °F    
Average Humidity 47    
Maximum Humidity 66    
Minimum Humidity 27    
Precipitation  
Precipitation 0.00 in 0.01 in 0.26 in (1998)
Month to date precipitation 0.00 0.06  
Year to date precipitation 8.25 10.38  
Snow  
Snow 0.00 in - - ()
Snow Depth 0.00 in    
Sea Level Pressure  
Sea Level Pressure 30.00 in    
Wind  
Wind Speed 22 mph (West)    
Max Wind Speed 41 mph    
Max Gust Speed 51 mph    
Visibility 10 miles    
Events      
T = Trace of Precipitation, MM = Missing Value Source: NWS Daily Summary

Daily Weather History Graph

Daily Weather History Graph

Search for Another Location

Airport:

Trip Planner

Search our weather history database for the weather conditions in past years. The results will help you decide how hot, cold, wet, or windy it might be!

Date:

Astronomy

Nov. 05, 2012 Rise Set
Actual Time 7:23 AM MST 5:02 PM MST
Civil Twilight 6:49 AM MST 5:35 PM MST
Nautical Twilight 6:12 AM MST 6:13 PM MST
Astronomical Twilight 5:35 AM MST 6:49 PM MST
Moon 10:44 PM MST (11/5) 12:45 PM MST (11/5)
Length of Visible Light 10h 46m
Length of Day
9h 39m
Waning Gibbous, 62% of the Moon is Illuminated
Nov 5
Waning Gibbous
Nov 6
Last Quarter
Nov 13
New
Nov 20
First Quarter
Nov 28
Full

Hourly Weather History & Observations

Time (MST) Temp. Windchill Dew Point Humidity Pressure Visibility Wind Dir Wind Speed Gust Speed Precip Events Conditions
12:56 AM 53.1 °F - 41.0 °F 64% 30.04 in 10.0 mi SW 18.4 mph 25.3 mph N/A   Clear
1:56 AM 54.0 °F - 43.0 °F 66% 30.01 in 10.0 mi WSW 28.8 mph 35.7 mph N/A   Clear
2:56 AM 54.0 °F - 43.0 °F 66% 29.97 in 10.0 mi SW 23.0 mph 32.2 mph N/A   Clear
3:56 AM 55.4 °F - 42.8 °F 63% 29.96 in 10.0 mi SW 29.9 mph 40.3 mph N/A   Clear
4:56 AM 55.9 °F - 42.1 °F 60% 29.90 in 10.0 mi WSW 26.5 mph 38.0 mph N/A   Clear
5:56 AM 55.9 °F - 43.0 °F 62% 29.94 in 10.0 mi WSW 26.5 mph 42.6 mph N/A   Clear
6:56 AM 55.9 °F - 42.1 °F 60% 29.91 in 10.0 mi WSW 26.5 mph 44.9 mph N/A   Clear
7:56 AM 57.0 °F - 39.9 °F 53% 29.89 in 10.0 mi West 28.8 mph 44.9 mph N/A   Clear
8:56 AM 57.9 °F - 39.0 °F 49% 29.88 in 10.0 mi West 34.5 mph 48.3 mph N/A   Clear
9:56 AM 59.0 °F - 39.0 °F 48% 29.91 in 10.0 mi West 32.2 mph 42.6 mph N/A   Clear
10:56 AM 62.1 °F - 34.0 °F 35% 29.92 in 10.0 mi West 34.5 mph 43.7 mph N/A   Clear
11:56 AM 62.1 °F - 32.0 °F 32% 29.96 in 10.0 mi WNW 26.5 mph 34.5 mph N/A   Clear
12:56 PM 63.0 °F - 28.9 °F 28% 29.96 in 10.0 mi WNW 23.0 mph 32.2 mph N/A   Clear
1:56 PM 61.0 °F - 28.0 °F 29% 29.98 in 10.0 mi WNW 23.0 mph 32.2 mph N/A   Clear
2:56 PM 59.0 °F - 28.0 °F 31% 30.00 in 10.0 mi West 17.3 mph - N/A   Clear
3:56 PM 57.0 °F - 27.0 °F 32% 30.02 in 10.0 mi West 19.6 mph 26.5 mph N/A   Clear
4:56 PM 53.1 °F - 27.0 °F 37% 30.04 in 10.0 mi West 18.4 mph - N/A   Clear
5:56 PM 51.1 °F - 27.0 °F 39% 30.06 in 10.0 mi West 19.6 mph - N/A   Clear
6:56 PM 48.9 °F - 26.1 °F 41% 30.08 in 10.0 mi West 17.3 mph - N/A   Clear
7:56 PM 48.9 °F - 26.1 °F 41% 30.09 in 10.0 mi West 21.9 mph - N/A   Clear
8:56 PM 46.0 °F 41.9 °F 26.1 °F 46% 30.12 in 10.0 mi West 8.1 mph - N/A   Clear
9:56 PM 44.1 °F 40.1 °F 26.1 °F 49% 30.14 in 10.0 mi West 6.9 mph - N/A   Clear
10:56 PM 42.1 °F 35.2 °F 27.0 °F 55% 30.14 in 10.0 mi West 12.7 mph - N/A   Clear
11:56 PM 39.9 °F 33.4 °F 28.0 °F 63% 30.14 in 10.0 mi WNW 10.4 mph - N/A   Clear